This is the latest recevied weather packets stored in our database for station/object K9RJT. If no packets are shown the sender has not sent any weather packets the latest 10 day(s).
| Time | Temp. | Humidity | Pressure | Rain* | Wind** | Luminosity | Snow |
|---|---|---|---|---|---|---|---|
| 1778095172 | 23.89° C | 36% | 1013.9 hPa | 0 mm | - | 693 W/m² | - |
| 1778094868 | 23.89° C | 36% | 1013.6 hPa | 0 mm | - | 691 W/m² | - |
| 1778094566 | 25° C | 34% | 1013.8 hPa | 0 mm | - | 688 W/m² | - |
| 1778094262 | 24.44° C | 34% | 1014 hPa | 0 mm | - | 687 W/m² | - |
| 1778093959 | 23.89° C | 34% | 1013.9 hPa | 0 mm | - | 684 W/m² | - |
| 1778093656 | 23.89° C | 34% | 1014 hPa | 0 mm | - | 683 W/m² | - |
| 1778093353 | 23.33° C | 34% | 1014.1 hPa | 0 mm | - | 678 W/m² | - |
| 1778093050 | 23.33° C | 35% | 1014.2 hPa | 0 mm | - | 674 W/m² | - |
| 1778092747 | 22.78° C | 37% | 1014.3 hPa | 0 mm | - | 672 W/m² | - |
| 1778092443 | 23.33° C | 37% | 1014.2 hPa | 0 mm | - | 666 W/m² | - |
| 1778092140 | 22.78° C | 37% | 1014.1 hPa | 0 mm | - | 661 W/m² | - |
| 1778091837 | 22.78° C | 35% | 1014.2 hPa | 0 mm | - | 659 W/m² | - |
| 1778091534 | 22.78° C | 36% | 1014.3 hPa | 0 mm | - | 653 W/m² | - |
| 1778091232 | 22.78° C | 37% | 1014.2 hPa | 0 mm | - | 646 W/m² | - |
| 1778090929 | 22.78° C | 37% | 1013.9 hPa | 0 mm | - | 642 W/m² | - |
| 1778090625 | 22.78° C | 38% | 1014.2 hPa | 0 mm | - | 634 W/m² | - |
| 1778090322 | 22.22° C | 39% | 1014.2 hPa | 0 mm | - | 628 W/m² | - |
| 1778090018 | 22.22° C | 37% | 1014.2 hPa | 0 mm | - | 624 W/m² | - |
| 1778089716 | 21.67° C | 39% | 1014 hPa | 0 mm | - | 616 W/m² | - |
| 1778089413 | 22.78° C | 39% | 1014.3 hPa | 0 mm | - | 609 W/m² | - |
| 1778089110 | 22.78° C | 41% | 1014.2 hPa | 0 mm | - | 601 W/m² | - |
| 1778088807 | 22.78° C | 40% | 1014.1 hPa | 0 mm | - | 593 W/m² | - |
| 1778088504 | 21.67° C | 43% | 1014.6 hPa | 0 mm | - | 584 W/m² | - |
| 1778088201 | 21.11° C | 43% | 1014.5 hPa | 0 mm | - | 577 W/m² | - |
| 1778087898 | 21.11° C | 43% | 1014.5 hPa | 0 mm | - | 568 W/m² | - |
* Rain latest hour (hover to see other rain measurements)
** Current wind speed in m/s (hover to see current wind gust speed)